Regional Weather Roundup
Issued by NWS

Home | Current Version | Previous Version | Graphics & Text | Print | Product List | Glossary On
Versions: 1 2 3 4 5 6 7 8 9 10 11 12 13 14 15 16 17 18 19 20 21 22 23 24 25 26 27 28 29 30 31 32 33 34 35 36 37 38 39 40 41 42 43 44 45 46 47 48 49 50
697
ASUS43 KFSD 261202
RWRSD

WEATHER ROUNDUP FOR SOUTH DAKOTA
NATIONAL WEATHER SERVICE SIOUX FALLS SD
700 AM CDT SUN MAR 26 2017

NOTE: "FAIR" INDICATES FEW OR NO CLOUDS BELOW 12,000 FEET WITH NO
SIGNIFICANT WEATHER AND/OR OBSTRUCTIONS TO VISIBILITY.


SDZ001>005-009-010-012>017-261300-
NORTHWEST AND NORTH CENTRAL SOUTH DAKOTA

CITY           SKY/WX    TMP DP  RH WIND       PRES   REMARKS
BUFFALO          N/A     43  37  79 N18       29.82S
FAITH            N/A     37  36  96 MISG      29.88R
MOBRIDGE       FOG       39  36  89 CALM      29.90R VSB 1
$$

SDZ012>016-024>037-041>051-057-063-072>074-261300-
SOUTHWEST AND SOUTH CENTRAL SOUTH DAKOTA

CITY           SKY/WX    TMP DP  RH WIND       PRES   REMARKS
RAPID CTY ARPT CLOUDY    41  35  79 N22       29.82F
PIERRE         CLOUDY    40  37  89 E8        29.88S
CUSTER         CLOUDY    40  35  83 NE3       29.82F
ELLSWORTH AFB  CLOUDY    41  38  89 N16       29.84S
PHILIP         CLOUDY    39  38  96 NE12      29.86R
PINE RIDGE     CLOUDY    47  31  53 CALM      29.81R
SPEARFISH      LGT RAIN  39  37  93 W9        29.89S
WINNER         CLOUDY    40  38  93 SE6       29.87S
$$

SDZ004>011-016>023-039-040-261300-
NORTHEAST SOUTH DAKOTA

CITY           SKY/WX    TMP DP  RH WIND       PRES   REMARKS
ABERDEEN       CLOUDY    35  33  92 NE5       29.94F FOG
WATERTOWN      FOG       34  33  96 NE5       29.93S VSB 1   WCI  30
BROOKINGS      MIX PCPN  35  35 100 NE3       29.92R FOG
SISSETON         N/A     35  35 100 E3        29.96S
$$

SDZ017-020-022-023-036>040-048>070-261300-
SOUTHEAST SOUTH DAKOTA

CITY           SKY/WX    TMP DP  RH WIND       PRES   REMARKS
SIOUX FALLS    CLOUDY    38  37  97 N5        29.92S FOG
HURON          CLOUDY    38  38 100 NE5       29.93S
CHAMBERLAIN    CLOUDY    40  40  99 E3        29.89S
MITCHELL       FOG       38  38 100 E5        29.93S VSB 1
YANKTON        CLOUDY    37  36  93 N3        29.91S VSB 3/4
$$

ABBREVIATIONS USED IN REMARKS
   TC - TEMPERATURE IN CELSIUS
  WCI - WIND CHILL INDEX
   HX - HEAT INDEX
  VSB - VISIBILITY





USA.gov is the U.S. government's official web portal to all federal, state and local government web resources and services.